STARLINK-1209, 45206

Orbit data source: Space-Track

STARLINK-1209, 45206 is a payload satellite owned by SpaceX/Seattle (US) in LEO that was launched on Mon, 17 Feb 2020 UTC via an FALCON 9 launch vehicle from the Air Force Eastern Test Range (AFETR). Payload-class satellites include a variety of spacecraft equipped with specific instruments for various scientific and technological missions. These include communications satellites like Starlink; space stations such as the ISS; scientific satellites like the Hubble; Earth observation satellites from companies like Planet Labs, Umbra, and HawkEye 360; GPS; miniature CubeSats for education and research; and military/defense satellites.

Loading next visibility...
Identifier
45206, 2020-012AE
Orbit
LEO
Country
Flag of USUS
Related business
Manufacturer
SpaceX/Seattle
Mission
Partially operational Commercial Communications
Bus & Motor
STARLINK, Unknown motor
Mass
260 kg wet, ~248 kg dry
Launch date (UTC)
2020-02-17 (6 years ago)
Launch vehicle
FALCON 9
Launch site
Air Force Eastern Test Range (AFETR)
Object type
Payload
Rocket body
Debris
Shape & HBR
Box + 1 Pan, 10.1 m
Radar Cross Section
13.562 m², Large (>1 m²)

Expand to show TLE details & history
Last TLE update: 12 hours ago

TLE from 12 hours ago
0 STARLINK-1209
1 45206U 20012AE  26169.78794012  .00033851  00000-0  31897-3 0  9995
2 45206  53.0361 201.0940 0007066 289.3468  70.6783 15.66752875350698
Epoch: 2026-06-18T18:54Z
TLE epoch observation values (Epoch: 2026-06-18T18:54:38.026Z)
Latitude
0.00001°
Longitude
10.40931°
Altitude
367.528 km
Speed
7.691 km/s
True Right ascension
13h 24m 22s
True Declination
0° 00' 00"
Sunlit
Object was in full shadow at epoch
Visualization orbit readout
Latitude
Unknown
Longitude
Unknown
Altitude
Unknown
Speed
Unknown
Apparent Right ascension
Unknown
Apparent Declination
Unknown
Sunlit
N/A
Visualization observer readout
Local Sidereal Time
17:58:15
Azimuth
Unknown
Elevation
Unknown
Doppler factor
Unknown
Orbital elements
Apogee altitude
373.25 km
Perigee altitude
363.716 km
Semi-major axis
6,746.62 km
Eccentricity
0.00071
Inclination
53.0361°
RAAN
201.094°
Arg. of periapsis
289.3468°
True anomaly
70.75473°
Mean anomaly
70.6783°
Eccentric anomaly
70.71651°
Mean motion
3.91664 °/min
Orbital period
91.92 mins
BSTAR
0.00031897
Loading maneuver chart data...
Computing Atmospheric mass density...

Documentation

Showing up to 5 results
|